[[{"header":{"parameterUnit":"m.s-1","parameterCategory":1,"la1":30.2991,"la2":30.254,"lo1":-89.0895,"lo2":-89.0444,"dy":0.0017,"dx":0.0017,"nx":28,"ny":28,"refTime":"2023-08-01T21:00:00:Z","depth":0,"parameterNumber":2,"parameterNumberName":"U-component_of_WINDS"},"data":[0,0,0,0,0,0,0,0,0,0,0,0,0,0,0,0,0,0,0,0,0,0,0,0,0,0,0,0,0,0,0,0,0,0,0,0,0,0,0,0,0,0,0,0,0,0,0,0,0,0,0,0,0,0,0,0,0,0,1.0686,1.0688,0,1.0827,1.0829,1.083,1.0895,1.0895,1.0895,1.0895,1.1044,1.1048,1.1052,0,0,0,0,0,0,0,0,0,0,0,0,0,1.0477,1.048,1.0686,1.0688,1.0689,1.0827,1.0829,1.0831,1.0895,1.0895,1.0895,1.0895,1.1043,1.1047,1.1052,0,0,0,0,0,0,0,0,0,0,0,0,0,1.0588,1.0482,1.0686,1.0738,1.0744,1.0826,1.0829,1.0831,1.0895,1.0895,1.0895,1.0895,1.1041,1.1047,1.1053,1.1095,0,0,1.1072,1.1074,0,0,0,0,0,0,0,0,1.0581,1.0595,1.0729,1.0735,1.0742,1.0843,1.081,1.092,1.0895,1.0838,1.0895,1.0895,1.0978,1.0989,1.1016,1.1102,1.1108,1.1072,1.1076,1.1079,1.108,0,0,0,0,0,0,0,1.0574,1.059,1.0742,1.0731,1.0739,1.0756,1.0772,1.0831,1.0907,1.0843,1.0848,1.0864,1.0981,1.101,1.102,1.111,1.1072,1.1078,1.1081,1.1084,1.1238,1.1238,0,0,0,0,0,0,1.0557,1.0583,1.0737,1.0746,1.0659,1.076,1.0777,1.0811,1.0907,1.0921,1.0864,1.0866,1.1,1.1013,1.1025,1.1081,1.1079,1.1084,1.1088,1.1238,1.1238,1.1238,0,0,0,0,0,0,1.0552,1.057,1.0732,1.0666,1.0688,1.0764,1.0801,1.0814,1.0843,1.0922,1.0937,1.0879,1.1,1.1017,1.1077,1.1087,1.1087,1.1093,1.1237,1.1238,1.1238,1.1192,0,0,0,0,0,0,1.0546,1.0568,1.0584,1.0666,1.0691,1.0779,1.0802,1.0817,1.0852,1.0857,1.094,1.0954,1.1001,1.1067,1.1083,1.1095,1.1097,1.1236,1.1237,1.1238,1.1193,1.1191,1.1189,0,0,0,0,0,1.0538,1.0566,1.0584,1.0602,1.0712,1.078,1.0794,1.0847,1.0853,1.087,1.0921,1.0951,1.1083,1.1073,1.1091,1.1106,1.1236,1.1237,1.1238,1.1194,1.1191,1.1189,0,0,0,0,0,0,1.0485,1.0578,1.0599,1.0654,1.0708,1.079,1.0814,1.0842,1.0897,1.09,1.0963,1.0982,1.1036,1.1077,1.1064,1.1151,1.1162,1.1167,1.1122,1.1121,1.1119,1.1108,1.1103,0,0,0,0,0,1.0479,1.0525,1.0604,1.0645,1.0671,1.0737,1.0769,1.0804,1.0864,1.0888,1.0943,1.1001,1.1056,1.1091,1.1145,1.1199,1.1218,1.1218,1.1216,1.1214,1.1217,1.1249,1.125,1.1242,1.1242,1.1242,0,0,1.0468,1.0525,1.055,1.0636,1.0682,1.0729,1.0756,1.0805,1.0841,1.0896,1.0955,1.0998,1.1067,1.1124,1.1152,1.116,1.1224,1.1215,1.1213,1.1218,1.125,1.1251,1.1252,1.1242,1.1242,1.1242,0,0,1.0473,1.052,1.0559,1.0604,1.0674,1.0717,1.0727,1.0805,1.0835,1.0895,1.0937,1.0981,1.1074,1.1121,1.1157,1.1179,1.1209,1.1195,1.1186,1.1216,1.1217,1.1218,1.1226,1.1228,1.1198,1.1198,1.1198,0,1.0451,1.0523,1.0576,1.0622,1.0659,1.0708,1.0749,1.0791,1.0875,1.09,1.0907,1.1024,1.1074,1.1143,1.1148,1.1175,1.1189,1.1186,1.1212,1.1213,1.1215,1.1224,1.1227,1.1196,1.1196,1.1197,1.1197,0,1.0493,1.0542,1.0566,1.0643,1.0683,1.0726,1.0787,1.0821,1.0853,1.0896,1.0957,1.1019,1.1086,1.1105,1.1138,1.1179,1.1182,1.1199,1.1212,1.1213,1.1222,1.1226,1.1193,1.1194,1.1194,1.1195,0,0,1.0469,1.0575,1.0583,1.0619,1.0698,1.0738,1.0784,1.0848,1.0876,1.0933,1.0974,1.105,1.1067,1.1108,1.1146,1.1172,1.1186,1.1187,1.119,1.1185,1.1236,1.1222,1.1225,1.1206,1.1206,1.1207,1.123,0,1.0485,1.0568,1.0617,1.068,1.0726,1.0774,1.0814,1.0868,1.0909,1.0956,1.1003,1.1056,1.1074,1.1099,1.1127,1.1178,1.1197,1.1177,1.1246,1.1247,1.1227,1.123,1.1216,1.1235,1.1234,1.1235,1.1235,0,1.0515,1.0568,1.0636,1.071,1.0731,1.0766,1.0829,1.0873,1.0935,1.0964,1.1008,1.1046,1.1098,1.1105,1.1178,1.1163,1.1194,1.1223,1.1226,1.1235,1.1242,1.124,1.1242,1.1245,1.1241,1.1241,1.124,0,1.0491,1.058,1.0632,1.0661,1.0749,1.0772,1.081,1.0872,1.0908,1.0964,1.0988,1.1049,1.1083,1.113,1.1184,1.1184,1.1251,1.1263,1.1277,1.1276,1.129,1.1289,1.1298,1.1309,1.1308,1.1308,1.1308,0,1.0504,1.0543,1.0622,1.0654,1.07,1.0756,1.0801,1.0843,1.0897,1.0939,1.0984,1.1023,1.1091,1.1138,1.1181,1.1235,1.125,1.1275,1.1286,1.1272,1.1268,1.1293,1.1294,1.1309,1.1309,1.1309,1.1309,0,1.0485,1.0539,1.0599,1.0677,1.0697,1.0728,1.0795,1.0828,1.0872,1.0924,1.094,1.1009,1.1067,1.1125,1.1204,1.1232,1.1285,1.13,1.1264,1.127,1.1281,1.1279,1.1307,1.1314,1.1319,1.1319,1.1319,0,1.049,1.0522,1.0602,1.0633,1.0669,1.0718,1.0754,1.0811,1.0847,1.092,1.0945,1.1006,1.1058,1.1149,1.1207,1.1267,1.1284,1.1289,1.1293,1.1278,1.1285,1.1282,1.1286,1.1288,1.1287,1.1287,1.1287,0,1.0494,1.0519,1.0569,1.0628,1.0669,1.0719,1.077,1.0793,1.086,1.0899,1.0958,1.0998,1.1077,1.1137,1.1204,1.1245,1.1278,1.1285,1.1292,1.1277,1.1255,1.1268,1.1259,1.1284,1.1285,1.1285,1.1285,1.1285,1.0488,1.0518,1.0579,1.0633,1.0677,1.0724,1.0759,1.0807,1.0856,1.0924,1.0955,1.1015,1.1077,1.117,1.121,1.1258,1.1267,1.1276,1.1279,1.128,1.1277,1.1246,1.1271,1.1271,1.1271,1.1271,1.1271,0,1.0494,1.0536,1.0585,1.0654,1.0697,1.0722,1.078,1.0814,1.0866,1.092,1.0969,1.1038,1.1096,1.1158,1.1221,1.1247,1.1264,1.1262,1.1261,1.127,1.1266,1.1254,1.1248,1.1248,1.1248,1.1248,1.1248,1.1248,1.0503,1.0555,1.0587,1.0662,1.0704,1.0761,1.0792,1.0836,1.088,1.0953,1.1001,1.104,1.1098,1.1165,1.122,1.1237,1.1259,1.1253,1.1274,1.1269,1.127,1.1272,1.1261,1.1257,1.1257,1.1274,1.1275,1.1275]},{"header":{"parameterUnit":"m.s-1","parameterCategory":1,"la1":30.2991,"la2":30.254,"lo1":-89.0895,"lo2":-89.0444,"dy":0.0017,"dx":0.0017,"nx":28,"ny":28,"refTime":"2023-08-01T21:00:00:Z","depth":0,"parameterNumber":3,"parameterNumberName":"V-component_of_WINDS"},"data":[0,0,0,0,0,0,0,0,0,0,0,0,0,0,0,0,0,0,0,0,0,0,0,0,0,0,0,0,0,0,0,0,0,0,0,0,0,0,0,0,0,0,0,0,0,0,0,0,0,0,0,0,0,0,0,0,0,0,4.9507,4.9507,0,4.9485,4.9485,4.9485,4.9472,4.9472,4.9472,4.9472,4.9447,4.9447,4.9446,0,0,0,0,0,0,0,0,0,0,0,0,0,4.9535,4.9535,4.9507,4.9507,4.9507,4.9485,4.9485,4.9485,4.9472,4.9472,4.9472,4.9472,4.9447,4.9447,4.9446,0,0,0,0,0,0,0,0,0,0,0,0,0,4.9519,4.9535,4.9507,4.9498,4.9497,4.9485,4.9485,4.9485,4.9472,4.9472,4.9472,4.9472,4.9448,4.9447,4.9446,4.9442,0,0,4.9443,4.9443,0,0,0,0,0,0,0,0,4.952,4.9518,4.9499,4.9498,4.9497,4.9481,4.9486,4.947,4.9472,4.9481,4.9472,4.9472,4.9458,4.9457,4.9453,4.944,4.9439,4.9443,4.9442,4.9442,4.9442,0,0,0,0,0,0,0,4.9521,4.9519,4.9498,4.9499,4.9498,4.9494,4.9491,4.9483,4.947,4.948,4.948,4.9477,4.9458,4.9454,4.9452,4.9439,4.9443,4.9442,4.9442,4.9441,4.9421,4.9421,0,0,0,0,0,0,4.9524,4.952,4.9499,4.9498,4.9509,4.9493,4.9491,4.9486,4.9471,4.9468,4.9477,4.9477,4.9455,4.9453,4.9451,4.9444,4.9442,4.9441,4.9441,4.9421,4.9421,4.9421,0,0,0,0,0,0,4.9525,4.9522,4.95,4.9509,4.9505,4.9493,4.9488,4.9486,4.9482,4.9468,4.9466,4.9475,4.9455,4.9452,4.9444,4.9443,4.9441,4.944,4.9421,4.9421,4.9421,4.9432,0,0,0,0,0,0,4.9526,4.9523,4.9522,4.9509,4.9505,4.9494,4.9488,4.9486,4.9481,4.948,4.9466,4.9463,4.9455,4.9445,4.9443,4.9442,4.9439,4.9421,4.9421,4.9421,4.9431,4.9432,4.9433,0,0,0,0,0,4.9527,4.9525,4.9522,4.9519,4.9504,4.9494,4.9492,4.9483,4.9481,4.9479,4.947,4.9464,4.9444,4.9445,4.9442,4.9441,4.9421,4.9421,4.9421,4.9431,4.9432,4.9433,0,0,0,0,0,0,4.9538,4.9523,4.9519,4.9514,4.9505,4.9492,4.949,4.9484,4.9476,4.9475,4.9463,4.946,4.9453,4.9446,4.9447,4.9435,4.9432,4.9431,4.944,4.9441,4.9442,4.9443,4.9438,0,0,0,0,0,4.954,4.9534,4.9521,4.9518,4.9514,4.9503,4.9498,4.9492,4.9482,4.9479,4.9469,4.9459,4.9451,4.9445,4.9437,4.943,4.9426,4.9428,4.9429,4.9429,4.9429,4.9424,4.9424,4.9421,4.9421,4.9421,0,0,4.9543,4.9535,4.9532,4.952,4.9513,4.9506,4.95,4.9493,4.9488,4.9477,4.9469,4.9462,4.945,4.9442,4.9438,4.9436,4.9429,4.9429,4.943,4.9429,4.9424,4.9424,4.9424,4.9421,4.9421,4.9421,0,0,4.9547,4.954,4.9536,4.9529,4.9518,4.9511,4.951,4.9497,4.9492,4.9484,4.9475,4.9468,4.9454,4.9446,4.944,4.944,4.9433,4.9437,4.9441,4.9436,4.9436,4.9436,4.9435,4.9435,4.9437,4.9437,4.9437,0,4.9552,4.9543,4.9534,4.9528,4.9523,4.9513,4.9509,4.9502,4.9489,4.9485,4.9483,4.9464,4.9456,4.9446,4.9445,4.9441,4.9439,4.9439,4.9437,4.9437,4.9437,4.9436,4.9436,4.9437,4.9437,4.9437,4.9437,0,4.9551,4.9544,4.9542,4.953,4.9525,4.9519,4.9508,4.9503,4.9497,4.949,4.9481,4.947,4.9459,4.9456,4.945,4.9445,4.9444,4.9439,4.9436,4.9438,4.9437,4.9436,4.9438,4.9438,4.9438,4.9438,0,0,4.9561,4.9544,4.9543,4.9537,4.9525,4.9519,4.9513,4.9503,4.9498,4.9489,4.9483,4.9471,4.9467,4.946,4.9453,4.9449,4.9448,4.9445,4.9444,4.9445,4.9441,4.9444,4.9444,4.9444,4.9444,4.9444,4.9441,0,4.9562,4.9551,4.9543,4.9535,4.9528,4.9519,4.9513,4.9504,4.9497,4.9489,4.948,4.9472,4.9468,4.9463,4.9459,4.9449,4.9447,4.9449,4.9437,4.9437,4.944,4.9443,4.9447,4.9445,4.9441,4.9441,4.9441,0,4.9562,4.9554,4.9546,4.9533,4.953,4.9525,4.9515,4.9508,4.9498,4.9492,4.9484,4.9477,4.9469,4.9466,4.9453,4.9455,4.9449,4.9444,4.9443,4.9442,4.9439,4.9441,4.9445,4.9444,4.944,4.944,4.944,0,4.9569,4.9556,4.955,4.9545,4.9531,4.9527,4.9521,4.951,4.9504,4.9495,4.9491,4.948,4.9474,4.9465,4.9455,4.9454,4.9443,4.9439,4.9438,4.9438,4.9436,4.9436,4.9438,4.9433,4.9433,4.9433,4.9433,0,4.9572,4.9567,4.9553,4.9549,4.9543,4.9532,4.9526,4.9519,4.9509,4.9503,4.9493,4.9487,4.9474,4.9465,4.9457,4.9447,4.9445,4.9439,4.9437,4.944,4.9441,4.9436,4.9436,4.9433,4.9433,4.9433,4.9433,0,4.9579,4.957,4.9562,4.9549,4.9545,4.9541,4.9529,4.9524,4.9516,4.9508,4.9505,4.9492,4.9482,4.947,4.9456,4.945,4.9441,4.9438,4.9445,4.9444,4.9443,4.9443,4.9441,4.944,4.9436,4.9436,4.9436,0,4.9581,4.9577,4.9564,4.9559,4.9553,4.9546,4.954,4.9529,4.9523,4.951,4.9506,4.9496,4.9486,4.947,4.9459,4.9447,4.9444,4.9444,4.9442,4.9445,4.9443,4.9443,4.9442,4.9444,4.9445,4.9445,4.9445,0,4.9585,4.958,4.9573,4.9564,4.9557,4.9549,4.954,4.9537,4.9524,4.9518,4.9508,4.95,4.9486,4.9475,4.9462,4.9454,4.9447,4.9446,4.9444,4.9447,4.9451,4.9449,4.9447,4.9446,4.9445,4.9445,4.9445,4.9445,4.9589,4.9585,4.9575,4.9567,4.9559,4.9551,4.9546,4.9537,4.9529,4.9517,4.9511,4.9501,4.9489,4.9471,4.9463,4.9454,4.9452,4.945,4.945,4.945,4.945,4.9453,4.9452,4.9452,4.9452,4.9452,4.9452,0,4.9592,4.9586,4.9578,4.9567,4.956,4.9555,4.9545,4.9539,4.953,4.952,4.9512,4.95,4.9489,4.9476,4.9464,4.9459,4.9456,4.9456,4.9456,4.9455,4.9453,4.9455,4.946,4.946,4.946,4.946,4.946,4.946,4.9593,4.9586,4.958,4.9569,4.9562,4.9552,4.9547,4.9539,4.9531,4.9518,4.951,4.9502,4.9491,4.9478,4.9467,4.9464,4.9459,4.9461,4.9456,4.9455,4.9455,4.9454,4.9456,4.946,4.946,4.9458,4.9458,4.9458]}]]